Change the Weather History Date:

Wednesday, November 6, 2013

  Actual Average Record
Temperature  
Mean Temperature 67 °F 68 °F  
Max Temperature 79 °F 80 °F 94 °F (2007)
Min Temperature 55 °F 56 °F 34 °F (1922)
Degree Days  
Heating Degree Days 0 1  
Month to date heating degree days 0 6  
Since 1 July heating degree days 1 12  
Cooling Degree Days 2 4  
Month to date cooling degree days 26 31  
Year to date cooling degree days 4938 4567  
Growing Degree Days 17 (Base 50)    
Moisture  
Dew Point 11 °F    
Average Humidity 15    
Maximum Humidity 25    
Minimum Humidity 5    
Precipitation  
Precipitation 0.00 in 0.02 in 0.50 in (2000)
Month to date precipitation T 0.12  
Year to date precipitation 5.60 6.62  
Snow  
Snow 0.00 in - - ()
Month to date snowfall 0.0  
Year to date snowfall 0.0  
Since 1 July snowfall 0.0  
Snow Depth 0.00 in    
Sea Level Pressure  
Sea Level Pressure 30.16 in    
Wind  
Wind Speed 6 mph (NE)    
Max Wind Speed 17 mph    
Max Gust Speed 21 mph    
Visibility 10 miles    
Events      
T = Trace of Precipitation, MM = Missing Value Source: NWS Daily Summary

Daily Weather History Graph

Daily Weather History Graph

Search for Another Location

Airport or City:

Trip Planner

Search our weather history database for the weather conditions in past years. The results will help you decide how hot, cold, wet, or windy it might be!

Date:

Astronomy

Nov. 06, 2013 Rise Set
Actual Time 6:51 AM MST 5:31 PM MST
Civil Twilight 6:25 AM MST 5:57 PM MST
Nautical Twilight 5:55 AM MST 6:26 PM MST
Astronomical Twilight 5:26 AM MST 6:56 PM MST
Moon 10:05 AM MST (11/6) 8:43 PM MST (11/6)
Length of Visible Light 11h 31m
Length of Day
10h 40m
Waxing Crescent, 14% of the Moon is Illuminated
Nov 6
Waxing Crescent
Nov 9
First Quarter
Nov 17
Full
Nov 25
Last Quarter
Dec 2
New

Hourly Weather History & Observations

Time (MST) Temp. Dew Point Humidity Pressure Visibility Wind Dir Wind Speed Gust Speed Precip Events Conditions
12:51 AM 62.1 °F 26.1 °F 25% 30.11 in 10.0 mi Variable 3.5 mph - N/A   Clear
1:51 AM 61.0 °F 24.1 °F 24% 30.13 in 10.0 mi East 6.9 mph - N/A   Clear
2:51 AM 60.1 °F 19.0 °F 20% 30.14 in 10.0 mi East 9.2 mph - N/A   Clear
3:51 AM 59.0 °F 21.9 °F 24% 30.15 in 10.0 mi Calm Calm - N/A   Clear
4:51 AM 57.0 °F 18.0 °F 22% 30.16 in 10.0 mi SE 4.6 mph - N/A   Clear
5:51 AM 55.9 °F 18.0 °F 23% 30.17 in 10.0 mi NE 5.8 mph - N/A   Clear
6:51 AM 55.9 °F 10.9 °F 17% 30.20 in 10.0 mi ENE 5.8 mph - N/A   Clear
7:51 AM 60.1 °F 7.0 °F 12% 30.22 in 10.0 mi ENE 16.1 mph - N/A   Clear
8:51 AM 63.0 °F 7.0 °F 11% 30.23 in 10.0 mi NE 11.5 mph - N/A   Clear
9:51 AM 66.0 °F 7.0 °F 10% 30.24 in 10.0 mi ENE 10.4 mph - N/A   Clear
10:51 AM 68.0 °F 12.9 °F 12% 30.23 in 10.0 mi Variable 4.6 mph - N/A   Clear
11:51 AM 70.0 °F 12.0 °F 11% 30.21 in 10.0 mi Calm Calm - N/A   Clear
12:51 PM 72.0 °F 6.1 °F 8% 30.18 in 10.0 mi Variable 3.5 mph - N/A   Clear
1:51 PM 75.0 °F 3.0 °F 6% 30.15 in 10.0 mi Calm Calm - N/A   Clear
2:51 PM 77.0 °F 1.0 °F 5% 30.13 in 10.0 mi North 8.1 mph - N/A   Clear
3:51 PM 77.0 °F -0.0 °F 5% 30.12 in 10.0 mi Calm Calm - N/A   Clear
4:51 PM 77.0 °F -0.0 °F 5% 30.12 in 10.0 mi West 4.6 mph - N/A   Clear
5:51 PM 75.0 °F 5.0 °F 7% 30.12 in 10.0 mi NW 8.1 mph - N/A   Clear
6:51 PM 73.0 °F 5.0 °F 7% 30.14 in 10.0 mi WNW 6.9 mph - N/A   Clear
7:51 PM 68.0 °F 10.9 °F 11% 30.15 in 10.0 mi WSW 4.6 mph - N/A   Clear
8:51 PM 66.0 °F 12.0 °F 12% 30.15 in 10.0 mi SW 3.5 mph - N/A   Clear
9:51 PM 63.0 °F 19.0 °F 18% 30.16 in 10.0 mi East 6.9 mph - N/A   Clear
10:51 PM 63.0 °F 17.1 °F 17% 30.15 in 10.0 mi Variable 3.5 mph - N/A   Clear
11:51 PM 66.9 °F 8.1 °F 10% 30.13 in 10.0 mi ENE 13.8 mph - N/A   Clear